Location: Bay Shore Mobile Home Park
(38.5762°N, 75.0841°W)
Time: 08:15:08
(UTC+00:00)

Okean 2 Rocket - Pass Details

Date: 15 November 2025
Orbit: 610 x 635 km, 82.5° (Epoch: 04 December)

Event Time Altitude Azimuth Distance (km) Brightness Sun altitude
Rises 22:42:14 0° 154° (SSE) 2,890 6.4 -11.0°
Reaches altitude 10° 22:44:50 10° 139° (SE) 1,985 5.4 -11.5°
Maximum altitude 22:48:14 22° 88° (E) 1,346 4.2 -12.2°
Enters shadow 22:50:26 16° 50° (NE) 1,641 4.7 -12.6°
